GFSSE_prec_cthk_273.txt.gz
RH
62 54 53 55 56 56 52 52 54 57 56 58 62 64 64 65 64 64 55 48 54 60 53 57 55 61 70 80 78 78 78 61 51 47 52 52 52 45 44 50 59 56 54
61 55 52 54 55 57 57 58 58 58 57 58 61 64 63 62 61 60 63 58 49 55 57 69 55 70 68 85 79 74 63 56 49 48 55 53 61 47 44 54 62 71 67
61 54 50 52 54 55 56 58 62 63 62 60 61 63 61 58 59 67 66 67 60 51 53 57 52 73 70 76 75 64 56 49 50 55 56 61 62 51 41 49 65 69 72
62 56 52 51 52 53 53 53 58 62 64 63 62 61 59 57 60 66 67 66 63 52 54 55 53 70 65 64 65 60 50 56 60 66 72 62 63 62 40 41 58 59 60
65 61 52 50 50 51 52 52 57 58 60 62 59 56 58 58 56 59 64 69 65 55 63 56 59 64 68 67 71 70 57 55 62 98 67 67 65 64 56 41 51 59 64
65 63 50 49 50 49 49 52 56 58 57 57 56 53 53 57 60 63 68 65 62 65 65 63 61 62 67 65 69 74 58 54 65 66 62 66 60 59 66 61 48 56 62
67 59 50 50 49 47 46 53 57 60 59 56 54 55 54 56 57 58 67 70 70 67 71 69 68 68 65 66 66 70 69 69 69 71 76 68 50 57 58 63 57 51 62
64 60 50 48 48 45 45 53 54 56 57 60 59 59 56 56 53 54 57 62 78 71 75 69 67 67 66 67 70 70 70 73 74 82 67 61 54 54 51 54 53 54 61
66 60 51 50 46 44 44 52 55 59 59 62 68 66 64 59 60 56 56 60 64 76 72 75 72 71 71 70 70 76 77 77 75 77 71 64 62 65 55 49 49 60 57
60 62 53 53 49 44 46 58 60 60 60 67 67 65 74 70 73 63 58 59 64 73 72 70 70 71 73 74 75 75 79 75 77 72 78 69 65 69 60 53 48 49 59
59 58 57 52 49 48 51 56 63 63 62 67 68 68 71 81 77 81 74 66 62 67 69 72 71 72 73 76 75 74 76 89 78 68 78 73 71 69 69 58 61 49 50
60 57 59 55 53 51 55 56 62 62 69 73 75 70 75 86 86 82 82 75 65 67 67 70 75 75 77 88 78 76 79 96 85 90 76 70 74 74 77 70 70 62 54
64 61 59 56 53 55 59 59 62 72 71 72 77 74 76 84 85 82 83 79 74 67 74 79 75 79 86 87 90 88 83 86 82 90 81 73 77 77 81 78 80 73 65
65 63 61 58 53 63 61 61 64 63 72 77 79 73 81 77 79 77 79 80 80 86 85 89 91 91 91 91 83 88 88 86 84 91 81 82 77 80 82 81 86 79 69
63 62 58 58 56 63 67 63 64 70 69 70 82 78 79 79 78 79 80 82 84 86 83 83 88 89 90 92 86 85 90 91 89 92 86 83 79 81 84 79 84 83 78
58 63 62 57 56 57 65 67 69 68 73 71 78 74 73 81 82 81 82 84 86 86 82 81 89 92 91 92 91 91 90 90 91 90 86 84 77 82 86 84 84 81 79
66 59 64 63 59 54 59 62 69 72 70 71 71 72 66 78 82 81 86 88 89 89 88 86 88 88 91 93 93 94 92 91 92 91 87 93 85 80 86 84 84 81 76
72 72 61 62 66 60 58 59 66 69 76 76 74 75 65 68 78 85 86 89 89 91 91 88 89 91 91 90 92 95 95 94 94 94 91 92 91 85 84 83 83 75 74
71 75 67 57 61 64 56 55 58 65 69 74 80 73 74 63 73 79 90 91 91 89 92 92 90 89 90 90 92 93 95 94 90 90 92 95 85 87 81 80 83 72 67
76 81 71 59 57 58 59 57 60 62 66 69 72 75 72 72 78 81 83 86 90 88 92 93 94 93 89 91 91 94 94 91 88 91 92 90 80 83 82 82 78 69 62
72 73 72 68 65 59 60 63 61 59 62 68 68 75 68 71 82 85 82 80 83 87 91 93 91 90 91 95 92 93 92 95 88 90 86 87 82 77 78 83 73 63 56
63 67 72 72 68 70 74 73 67 64 66 72 74 75 70 72 80 81 83 81 82 86 88 87 87 88 89 97 93 90 94 93 94 90 88 82 81 76 73 72 65 65 60
52 54 54 58 64 66 67 69 79 74 71 72 76 82 80 78 85 85 82 79 82 84 89 83 86 86 90 94 97 94 92 92 89 93 89 83 81 77 71 66 58 59 60
51 54 54 54 56 59 65 67 66 67 69 71 74 77 76 80 82 85 84 86 84 85 85 82 90 84 86 87 94 92 90 92 89 94 93 83 78 74 66 65 63 57 55
45 49 50 51 52 58 60 63 64 66 70 72 71 74 76 80 85 86 89 89 88 88 86 86 87 81 83 83 91 91 92 90 89 92 93 81 72 74 68 59 60 58 51
40 43 50 50 49 50 57 60 63 70 72 74 75 76 76 78 82 85 90 90 89 88 86 87 85 83 83 86 87 92 88 91 88 89 91 88 75 62 67 60 56 53 52

GFSSE_prec_cthk_276.txt.gz
RH
54 51 52 54 53 52 52 53 55 55 55 60 61 61 61 61 62 58 51 54 59 58 55 56 62 74 74 74 75 65 52 44 47 46 48 40 51 48 57 57 51 66 64
51 49 50 52 52 54 55 54 55 54 56 58 60 59 58 57 58 61 61 53 56 62 72 56 64 77 85 78 75 62 56 53 48 50 52 42 46 45 63 61 56 70 67
51 47 48 51 53 54 58 62 60 58 56 58 60 59 55 56 63 64 64 62 56 56 60 53 77 73 79 74 64 55 55 62 55 54 57 55 41 50 66 74 70 68 65
51 48 47 49 52 53 54 58 60 62 60 60 60 59 55 56 60 66 68 66 53 56 57 56 76 70 66 65 59 50 55 61 74 77 67 60 42 41 57 63 69 70 60
53 50 46 48 50 52 52 56 58 60 62 60 56 56 57 54 56 67 67 67 57 60 60 57 72 70 68 66 62 70 63 70 84 77 68 56 53 38 45 56 59 59 59
58 49 45 47 48 50 51 55 58 58 58 58 55 51 54 56 60 66 63 59 63 63 63 62 65 72 71 74 70 67 67 65 86 67 65 54 58 51 41 51 58 64 63
58 50 44 46 47 47 49 55 56 57 57 57 55 53 53 54 58 60 65 67 67 69 67 65 68 67 70 70 67 67 69 71 65 64 60 53 53 62 59 46 53 60 63
56 53 46 44 46 44 47 52 55 56 56 58 59 56 56 55 53 55 58 68 72 70 71 67 69 67 68 66 65 70 69 77 80 68 71 52 49 53 58 52 49 56 58
61 52 46 44 44 43 45 51 54 55 56 60 72 59 66 56 57 53 54 58 64 73 72 70 66 66 65 67 70 73 73 75 80 75 59 52 52 48 50 49 47 55 59
63 52 46 45 41 41 42 51 52 57 58 63 73 65 69 68 72 60 56 58 63 72 67 67 68 71 75 74 72 72 78 80 84 81 66 55 58 54 53 45 52 51 56
60 56 48 47 42 40 48 56 58 59 58 62 66 66 66 73 72 75 70 61 59 64 66 68 69 71 72 73 71 72 82 87 81 73 72 65 59 60 57 51 44 54 56
58 63 55 49 47 43 54 49 62 59 65 66 68 64 67 85 83 78 78 75 64 62 64 68 72 72 74 75 73 75 81 93 87 84 87 72 66 63 64 66 53 47 55
60 56 59 55 51 46 52 52 54 65 66 68 73 69 83 91 81 80 78 78 68 63 66 75 72 74 78 84 90 88 91 94 96 96 89 69 68 69 71 77 62 56 55
59 62 57 54 52 52 54 52 50 59 65 70 72 68 74 79 77 81 80 77 75 78 81 85 86 89 94 93 91 87 93 96 92 98 81 76 70 70 73 77 70 67 62
56 58 57 52 49 59 60 56 53 64 66 68 73 75 72 78 74 75 76 76 79 85 82 82 85 87 92 93 92 80 86 91 91 90 86 82 78 72 75 75 77 74 67
56 55 57 53 48 56 65 65 58 61 61 65 67 75 72 72 75 76 79 81 81 86 84 84 86 88 93 91 93 88 86 88 89 88 84 80 75 74 76 77 79 80 75
69 67 59 54 53 49 56 63 63 69 63 62 63 64 68 72 73 79 81 84 87 86 85 86 86 94 91 90 90 88 89 86 88 89 87 85 83 78 84 79 77 79 76
64 68 67 61 56 54 49 53 57 65 77 74 64 62 64 62 66 76 80 86 87 89 90 90 91 92 94 94 91 93 92 89 90 91 90 87 91 84 85 79 80 77 72
66 73 74 66 56 60 55 48 48 51 58 73 73 73 70 64 58 67 83 89 90 89 89 93 92 91 95 96 94 93 92 92 93 90 91 87 88 82 84 76 77 75 68
66 73 73 62 54 55 56 52 50 48 58 62 68 75 75 71 69 67 74 86 88 87 93 95 91 89 92 97 96 94 92 93 90 86 89 85 79 75 79 73 73 67 63
62 67 67 65 60 58 54 53 53 57 54 57 65 64 73 68 69 73 81 83 87 87 90 89 90 94 91 93 97 94 95 94 94 86 89 86 80 77 75 77 71 62 58
53 60 64 66 63 64 65 64 69 61 63 62 65 68 69 68 67 70 80 82 79 80 83 85 88 88 93 92 94 92 94 95 95 90 83 81 82 77 74 73 68 64 56
47 48 48 48 50 56 60 62 65 74 72 68 68 75 76 76 73 76 78 80 80 77 79 84 86 86 92 92 92 96 94 93 91 90 87 79 78 82 73 66 65 61 56
40 42 44 45 45 48 53 58 66 62 64 63 66 74 75 74 73 75 79 80 80 79 78 80 86 87 88 87 87 93 94 93 93 90 91 87 81 78 73 63 59 56 54
36 36 39 45 46 48 51 57 62 64 64 66 69 67 71 74 75 76 78 81 83 83 82 82 81 84 90 83 83 86 92 96 93 89 91 89 86 79 76 61 56 52 52
42 43 37 39 45 48 50 54 59 64 67 76 84 77 74 73 74 76 79 82 83 87 84 85 85 85 88 88 84 91 91 91 91 92 87 90 79 69 73 62 56 54 51

GFSSE_prec_cthk_279.txt.gz
RH
55 55 56 53 51 49 52 54 54 54 58 59 59 57 57 58 56 51 51 53 54 49 52 62 73 74 74 74 60 50 47 46 48 39 54 47 50 57 53 51 56 59 61
50 52 53 53 54 52 50 52 54 54 57 57 56 55 53 54 56 57 48 51 60 61 53 63 79 78 77 69 60 50 47 48 49 42 47 48 56 56 53 62 61 61 52
48 48 49 50 53 55 56 56 54 54 57 58 56 53 53 57 60 60 57 50 52 55 53 71 80 86 79 65 55 61 57 52 56 52 41 46 57 62 57 64 65 58 60
46 45 47 47 49 51 53 57 57 57 57 59 58 54 54 58 64 63 59 50 54 53 56 75 75 71 70 61 52 58 62 64 66 63 47 46 58 70 70 65 60 58 64
47 44 44 46 49 51 51 55 56 58 58 56 54 55 52 56 64 65 62 53 54 54 58 74 69 65 60 58 63 59 65 72 72 59 56 39 50 58 65 65 59 54 57
48 44 43 45 47 49 50 55 56 55 56 55 51 51 54 57 62 59 57 57 59 59 58 66 70 71 63 69 67 63 66 71 76 59 57 49 40 50 61 59 56 60 62
48 44 42 43 45 46 48 55 56 55 55 54 51 50 55 55 60 64 65 64 66 66 63 64 67 69 71 68 68 69 64 66 68 58 53 57 50 47 54 58 59 61 64
44 43 41 42 43 44 47 53 55 55 55 55 57 52 53 52 53 57 67 78 68 70 66 66 66 66 69 64 69 73 77 76 63 73 59 50 63 61 52 59 59 62 62
52 44 43 40 42 42 46 50 53 54 54 56 62 57 57 52 53 52 58 65 73 75 69 65 65 67 69 65 67 77 76 82 77 72 56 53 52 61 55 54 57 56 58
60 54 46 40 39 40 43 48 51 54 57 65 66 67 63 62 68 57 57 61 71 69 69 70 70 74 73 72 74 77 81 82 83 72 58 53 53 54 55 53 53 56 59
61 52 45 40 39 38 41 45 50 55 55 61 65 66 68 74 74 72 61 58 63 67 68 69 73 75 75 75 76 76 82 86 83 77 69 57 56 56 56 62 53 55 60
54 52 44 39 38 38 43 46 54 54 59 61 62 63 69 85 85 77 77 76 61 64 66 70 71 72 73 75 78 79 81 88 86 80 75 71 64 58 59 58 64 58 57
52 50 48 42 38 38 44 45 51 60 58 63 68 65 76 89 79 80 77 78 66 66 67 77 73 76 81 82 88 86 83 87 87 82 85 77 71 64 67 66 70 56 60
51 51 49 48 46 42 46 47 46 55 61 62 67 68 71 79 76 80 77 72 65 71 78 83 88 89 86 88 88 93 91 90 86 84 79 76 73 71 73 80 78 63 54
53 50 50 49 48 46 48 50 45 52 58 63 68 72 69 72 74 74 74 72 75 79 83 78 86 85 90 92 92 91 89 94 91 88 82 77 72 71 73 78 79 68 62
53 55 51 49 50 48 54 55 53 52 56 60 66 73 73 68 71 71 76 76 80 82 84 82 85 87 92 91 91 92 85 89 91 91 88 83 79 74 73 77 77 72 70
55 61 59 54 49 48 54 63 58 56 58 59 60 65 70 72 72 73 76 79 79 83 83 87 89 89 94 91 91 92 88 86 92 91 92 84 80 76 79 78 74 78 73
57 61 67 65 54 53 51 55 59 61 67 71 65 63 61 64 70 69 75 80 83 84 88 88 92 95 94 95 96 94 93 89 87 88 91 88 82 83 78 80 77 76 76
61 70 73 69 57 56 53 47 50 55 63 70 70 69 67 68 63 60 68 80 84 86 87 88 90 93 95 95 93 92 93 92 93 92 91 92 88 87 82 81 77 76 76
60 66 65 62 54 51 50 49 46 46 51 56 65 72 77 73 70 65 60 66 77 82 84 88 93 90 85 89 93 90 92 92 92 94 90 88 91 84 81 77 76 75 71
54 62 63 59 55 53 49 47 48 49 43 50 57 61 68 72 69 71 72 75 81 82 82 86 87 90 90 90 91 91 92 93 94 93 91 87 78 76 76 73 71 70 63
44 50 60 59 60 60 61 60 60 60 53 55 56 59 62 66 65 67 71 73 81 80 81 80 84 85 87 92 90 92 91 92 94 95 88 85 79 75 76 70 67 64 58
38 39 41 44 47 51 54 58 60 63 67 67 65 65 71 73 74 72 75 76 79 79 79 82 85 86 83 86 89 88 91 91 94 92 89 81 77 77 72 70 67 61 54
34 36 38 41 44 47 45 54 58 63 63 65 66 63 70 76 76 75 73 78 79 80 79 78 80 86 88 88 87 85 87 90 90 90 90 83 80 80 76 66 64 61 55
28 29 32 36 41 46 46 48 54 58 63 63 63 66 66 72 76 78 78 79 82 83 83 83 84 84 85 85 87 82 84 93 93 96 92 90 86 83 76 65 58 57 55
33 33 33 31 36 43 45 46 49 53 60 67 75 80 76 76 76 76 77 78 81 83 87 89 86 86 85 87 90 89 87 89 94 95 94 93 88 83 77 69 59 56 53

GFSSE_prec_cthk_285.txt.gz
RH
55 55 54 53 55 56 55 59 62 62 62 60 60 58 54 52 52 53 56 56 59 70 70 74 74 73 78 59 47 43 50 50 42 52 60 56 53 54 54 55 54 50 47
51 56 57 55 54 54 53 55 59 59 57 55 54 53 55 53 50 55 54 52 58 71 70 71 73 66 52 48 48 43 46 50 45 59 59 50 54 57 60 63 64 64 61
50 54 57 58 57 57 57 57 56 56 54 54 53 51 54 55 50 51 55 54 59 72 74 71 66 58 56 51 47 44 41 48 48 55 52 56 59 60 57 57 58 58 60
48 51 55 58 56 56 58 59 59 56 53 52 51 55 59 58 55 50 54 52 58 71 72 73 64 55 61 57 52 51 48 49 51 57 53 63 69 62 57 55 55 60 64
48 49 52 58 55 56 59 57 59 58 52 52 51 57 62 62 57 49 53 53 59 70 71 68 66 57 56 56 60 65 61 46 50 57 58 67 74 63 62 65 63 65 67
47 48 50 54 54 55 58 57 57 57 55 50 51 56 62 62 55 51 52 54 59 67 68 67 60 58 60 65 67 66 67 57 43 55 66 72 69 61 60 65 66 67 68
47 47 49 52 51 55 58 59 60 59 57 53 51 54 58 58 54 55 57 58 60 63 62 59 56 58 65 68 68 68 72 62 52 41 54 61 65 67 57 57 62 66 68
42 45 47 49 50 54 58 60 62 60 59 57 53 51 55 57 58 62 62 61 61 60 62 60 63 66 65 64 62 62 69 63 59 51 41 52 64 63 59 62 65 66 65
42 43 45 47 48 52 58 61 61 59 59 59 57 51 49 52 61 65 64 66 60 61 61 62 64 65 65 64 66 68 69 61 59 56 53 47 56 60 61 63 65 62 63
44 44 45 45 48 49 56 60 60 61 61 63 63 59 53 51 54 60 66 69 62 62 63 66 66 65 65 65 70 74 75 68 66 60 58 65 54 60 65 68 66 58 55
46 43 45 45 45 48 51 57 58 61 67 66 68 62 62 64 53 55 62 64 64 61 62 65 68 65 66 70 72 75 78 76 72 62 56 56 62 56 60 59 61 60 58
54 50 46 45 45 45 48 51 57 58 66 67 67 72 76 76 63 59 62 65 63 63 65 68 70 74 72 74 75 79 83 85 76 66 58 54 53 56 56 60 63 64 64
57 59 52 47 45 43 44 46 54 57 62 68 64 76 90 87 78 72 66 63 61 64 68 70 71 75 76 77 81 81 83 86 87 79 63 56 54 54 57 59 63 69 72
58 57 51 47 44 43 43 45 49 56 59 66 65 69 80 79 80 78 76 66 60 65 70 70 71 76 77 79 82 85 85 86 88 84 76 67 61 55 54 62 66 69 69
58 58 53 47 44 42 44 45 47 51 54 60 64 73 72 76 78 76 75 68 62 71 76 74 80 79 84 85 89 88 87 87 85 84 81 84 73 63 60 56 63 71 70
63 60 59 47 43 43 44 48 49 48 52 57 66 75 72 74 75 72 66 65 71 78 82 82 86 88 91 93 93 95 90 90 89 87 85 83 78 73 71 65 69 82 76
67 67 63 62 53 47 44 50 51 56 54 60 65 70 73 75 74 75 74 71 76 82 85 87 88 89 92 95 93 95 95 92 87 87 86 82 80 78 75 77 77 74 76
72 75 73 71 59 52 46 53 56 60 61 64 66 67 70 71 75 75 76 79 78 79 83 85 90 92 97 95 94 95 95 93 87 85 88 88 84 77 82 80 84 80 69
71 75 83 80 73 67 57 59 59 61 61 68 69 71 70 70 71 68 69 77 83 84 84 85 89 92 91 91 92 93 94 93 92 88 92 90 90 86 86 84 86 83 73
66 70 81 80 78 69 64 64 63 60 62 65 69 72 74 77 75 75 74 67 69 78 81 82 84 90 91 92 91 95 94 94 94 93 92 93 92 88 86 87 82 83 77
59 68 68 67 65 61 64 63 61 56 54 58 61 65 69 75 79 81 77 74 76 81 86 88 88 90 93 91 93 95 94 94 96 96 96 94 92 86 84 81 76 78 76
49 62 65 65 65 61 56 55 55 54 55 52 55 59 64 68 71 75 77 75 75 77 83 85 85 85 91 88 91 93 94 94 93 94 96 96 93 85 81 77 77 77 78
42 44 48 49 55 65 68 67 62 65 64 64 58 63 65 64 69 74 78 77 78 81 81 84 85 85 84 85 89 91 93 91 92 93 96 97 91 87 76 74 74 76 77
35 37 37 40 43 48 54 64 69 66 62 65 66 65 68 68 71 74 83 83 80 81 83 84 85 85 85 85 88 92 92 90 89 93 93 94 89 84 77 74 70 72 73
33 32 33 37 42 44 50 51 60 59 63 65 67 69 65 65 68 75 77 80 84 84 85 83 87 85 87 88 88 90 91 91 89 90 94 93 91 84 79 75 69 67 69
30 30 31 33 40 44 46 51 53 56 58 61 66 66 67 68 69 73 77 80 81 83 83 84 87 87 88 92 92 91 91 93 89 91 94 97 95 88 82 80 69 62 62

GFSSE_prec_cthk_291.txt.gz
RH
55 56 58 60 63 64 63 65 63 62 63 62 55 52 54 56 58 65 71 73 72 82 83 80 74 57 44 50 59 60 58 59 55 58 55 47 51 50 43 51 42 47 48
51 53 54 56 61 67 65 66 65 61 60 58 57 54 53 54 56 63 68 70 73 72 72 70 58 45 44 51 46 53 58 58 54 57 50 58 59 44 42 50 45 46 59
52 53 53 55 56 60 62 62 63 60 55 55 55 55 52 53 55 61 69 75 73 73 68 61 53 46 45 54 43 53 56 56 50 57 60 64 64 65 60 58 51 45 45
50 51 51 56 58 58 58 59 59 58 55 53 53 54 54 56 56 62 72 81 75 70 67 55 56 47 45 45 44 55 57 52 55 57 63 64 68 62 61 58 52 53 53
50 52 51 55 57 58 57 56 58 56 55 54 58 59 60 62 58 62 72 84 80 74 55 69 62 51 48 56 51 56 57 50 56 60 60 58 57 55 61 53 57 45 42
50 53 51 56 57 56 57 56 55 55 56 56 62 64 62 57 62 65 69 84 80 81 61 69 57 55 60 58 54 52 53 52 59 68 62 60 64 63 64 61 61 59 51
49 52 52 56 57 58 58 58 56 54 55 56 63 64 63 59 62 54 68 80 77 71 62 62 61 70 66 64 58 47 53 55 59 67 60 64 67 65 64 69 72 65 64
48 53 53 58 59 60 60 61 61 55 54 54 60 63 61 60 61 62 64 75 76 70 62 63 64 67 67 71 67 55 50 57 63 65 64 59 64 65 66 66 69 67 70
49 51 52 55 58 59 62 61 62 60 54 54 54 61 58 61 67 65 66 68 70 65 59 66 65 68 65 65 72 59 53 47 53 58 63 67 59 62 63 65 64 66 68
50 49 52 54 56 59 63 66 67 64 56 58 54 56 67 68 70 71 70 68 70 69 65 69 69 67 68 68 71 69 60 55 50 50 58 64 66 65 69 70 65 61 59
49 49 49 49 51 57 62 70 70 66 63 60 57 63 61 63 72 70 72 68 72 72 70 73 70 68 66 75 83 83 74 62 56 57 57 60 64 63 67 71 62 56 55
50 47 49 48 49 53 60 70 69 67 68 61 66 64 63 59 61 70 75 73 73 75 74 74 73 71 71 75 83 90 84 71 66 56 61 57 64 66 68 69 60 59 58
44 47 45 47 48 49 55 63 66 64 72 65 70 74 74 72 66 70 73 77 75 76 78 78 77 73 74 77 78 86 89 85 71 64 58 60 58 63 62 65 66 68 71
44 43 43 45 47 47 50 60 63 61 64 69 72 81 83 78 69 63 64 69 75 78 81 78 79 79 78 79 81 83 87 90 88 71 65 62 60 63 58 63 67 67 73
51 51 50 48 46 46 47 50 58 60 60 66 68 74 78 81 78 71 64 62 69 71 77 81 81 81 83 84 85 87 87 88 93 87 80 69 60 63 59 58 66 72 74
52 51 51 48 48 47 46 46 49 53 56 60 65 68 77 79 79 77 73 73 66 70 77 79 83 84 86 89 88 90 92 91 89 89 88 83 76 60 64 64 60 68 75
57 58 54 56 50 43 45 46 46 47 47 53 60 69 75 78 76 73 74 73 67 71 78 86 86 88 93 93 96 97 99 95 92 90 89 86 85 76 66 62 66 66 69
62 66 65 59 49 43 42 45 46 47 46 48 55 64 74 76 76 76 70 70 69 71 82 86 92 95 95 92 99 97 98 98 94 92 88 87 84 87 75 71 65 69 72
60 70 79 77 62 52 48 44 47 51 51 53 57 61 65 70 73 74 76 71 75 80 82 85 90 92 96 96 98 99 98 98 96 95 90 86 89 86 84 77 72 71 74
60 69 82 82 75 61 55 45 42 52 53 57 64 68 71 70 69 73 73 77 80 79 80 82 86 86 93 97 99 97 98 95 95 97 93 90 90 88 85 82 79 77 80
54 67 74 77 73 71 67 56 47 50 51 54 57 63 67 73 77 78 75 75 74 74 81 86 89 91 96 96 96 96 96 96 96 97 98 95 91 89 80 76 75 76 79
47 60 69 70 73 73 68 61 57 58 56 51 51 55 62 66 68 76 78 81 79 78 80 83 86 90 91 95 93 92 94 95 92 94 98 97 94 94 91 80 80 76 79
40 45 56 60 68 65 61 57 54 55 53 52 50 52 52 58 64 66 71 79 82 78 77 80 85 86 89 92 92 90 90 93 91 93 95 96 98 95 93 84 80 76 74
35 40 45 51 54 61 71 72 66 60 55 58 57 56 53 56 60 65 70 73 79 82 78 83 86 86 84 87 89 85 87 90 93 93 91 93 95 98 94 87 79 77 74
35 35 40 45 46 49 50 58 64 70 68 69 65 62 69 72 74 73 68 71 75 79 79 79 82 85 84 87 88 88 86 90 90 92 93 92 95 95 94 88 81 77 72
30 32 34 38 42 45 46 50 51 55 61 62 64 65 66 72 72 69 68 70 73 77 78 81 86 87 89 88 88 89 89 89 91 91 91 93 93 98 97 91 85 80 71